Albert Lea, MN

12:20 AM CST on February 26, 2017 (GMT -0600)
Albert Lea Municipal

Weather History for KAEL - December, 2013

Change the Weather History Date:

Wednesday, December 25, 2013

  Actual Average Record
Temperature  
Mean Temperature 19 °F -  
Max Temperature 28 °F 23 °F 41 °F (1999)
Min Temperature 10 °F 9 °F -23 °F (2000)
Degree Days  
Heating Degree Days 46    
Moisture  
Dew Point 17 °F    
Average Humidity 87    
Maximum Humidity 100    
Minimum Humidity 74    
Precipitation  
Precipitation 0.02 in - - ()
Sea Level Pressure  
Sea Level Pressure 30.09 in    
Wind  
Wind Speed 7 mph (West)    
Max Wind Speed 15 mph    
Max Gust Speed 26 mph    
Visibility 7 miles    
Events Snow    
Averages and records for this station are not official NWS values.
T = Trace of Precipitation, MM = Missing Value Source: NWS Daily Summary

Daily Weather History Graph

Daily Weather History Graph

Search for Another Location

Airport or City:

Trip Planner

Search our weather history database for the weather conditions in past years. The results will help you decide how hot, cold, wet, or windy it might be!

Date:

Astronomy

Dec. 25, 2013 Rise Set
Actual Time 7:45 AM CST 4:41 PM CST
Civil Twilight 7:12 AM CST 5:14 PM CST
Nautical Twilight 6:36 AM CST 5:51 PM CST
Astronomical Twilight 6:01 AM CST 6:26 PM CST
Moon 12:03 AM CST (12/25) 11:55 AM CST (12/25)
Length of Visible Light 10h 01m
Length of Day
8h 56m
Waning Gibbous, 48% of the Moon is Illuminated
Dec 25
Waning Gibbous
Jan 1
New
Jan 7
First Quarter
Jan 15
Full
Jan 23
Last Quarter

Hourly Weather History & Observations

Time (CST) Temp. Windchill Dew Point Humidity Pressure Visibility Wind Dir Wind Speed Gust Speed Precip Events Conditions
4:29 AM 17.6 °F 9.3 °F 15.8 °F 93% 30.08 in 5.0 mi WSW 5.8 mph - N/A   Overcast
4:31 AM 17.6 °F 8.2 °F 15.8 °F 93% 30.08 in 5.0 mi WSW 6.9 mph - N/A   Overcast
4:51 AM 17.6 °F 9.3 °F 15.8 °F 93% 30.07 in 5.0 mi WSW 5.8 mph - N/A   Overcast
5:11 AM 17.6 °F 12.3 °F 15.8 °F 93% 30.07 in 7.0 mi WSW 3.5 mph - N/A   Overcast
5:31 AM 17.6 °F 12.3 °F 15.8 °F 93% 30.06 in 7.0 mi WSW 3.5 mph - N/A   Overcast
5:51 AM 17.6 °F 12.3 °F 17.6 °F 100% 30.07 in 7.0 mi SW 3.5 mph - N/A   Overcast
6:11 AM 19.4 °F 12.8 °F 17.6 °F 93% 30.06 in 7.0 mi SW 4.6 mph - N/A   Overcast
6:31 AM 19.4 °F 11.5 °F 17.6 °F 93% 30.07 in 2.5 mi SW 5.8 mph - N/A Snow Light Snow
6:51 AM 19.4 °F 11.5 °F 17.6 °F 93% 30.08 in 1.8 mi SW 5.8 mph - N/A Snow Light Snow
7:10 AM 19.4 °F 10.4 °F 17.6 °F 93% 30.07 in 1.8 mi SW 6.9 mph - N/A Snow Light Snow
7:31 AM 19.4 °F 12.8 °F 17.6 °F 93% 30.06 in 2.0 mi South 4.6 mph - N/A Snow Light Snow
7:51 AM 19.4 °F 11.5 °F 17.6 °F 93% 30.05 in 1.8 mi SSW 5.8 mph - 0.01 in Snow Light Snow
8:10 AM 19.4 °F 12.8 °F 17.6 °F 93% 30.07 in 2.0 mi SW 4.6 mph - 0.01 in Snow Light Snow
8:31 AM 19.4 °F 9.5 °F 17.6 °F 93% 30.06 in 2.0 mi SSW 8.1 mph - 0.01 in Snow Light Snow
8:51 AM 19.4 °F 9.5 °F 17.6 °F 93% 30.06 in 4.0 mi SSW 8.1 mph - N/A   Overcast
9:11 AM 21.2 °F 10.9 °F 19.4 °F 93% 30.06 in 5.0 mi SSW 9.2 mph - N/A   Overcast
9:31 AM 21.2 °F 11.7 °F 19.4 °F 93% 30.07 in 3.0 mi SW 8.1 mph - N/A Snow Light Snow
9:51 AM 21.2 °F 11.7 °F 19.4 °F 93% 30.07 in 0.8 mi SW 8.1 mph - N/A Snow Light Snow
10:11 AM 23.0 °F 13.1 °F 21.2 °F 93% 30.08 in 1.0 mi SW 9.2 mph - N/A Snow Light Snow
10:31 AM 23.0 °F 13.9 °F 21.2 °F 93% 30.08 in 1.5 mi SW 8.1 mph - N/A Snow Light Snow
10:51 AM 23.0 °F 13.9 °F 21.2 °F 93% 30.08 in 3.0 mi WSW 8.1 mph 17.3 mph N/A Snow Light Snow
11:11 AM 24.8 °F 16.1 °F 21.2 °F 86% 30.07 in 3.0 mi WSW 8.1 mph - N/A   Overcast
11:30 AM 24.8 °F 14.6 °F 21.2 °F 86% 30.07 in 4.0 mi WSW 10.4 mph 17.3 mph N/A   Overcast
11:51 AM 24.8 °F 15.3 °F 23.0 °F 93% 30.06 in 5.0 mi West 9.2 mph - N/A   Overcast
12:11 PM 24.8 °F 15.3 °F 23.0 °F 93% 30.06 in 5.0 mi West 9.2 mph - N/A   Overcast
12:31 PM 26.6 °F 18.2 °F 24.8 °F 93% 30.06 in 5.0 mi West 8.1 mph - N/A   Overcast
12:51 PM 26.6 °F 18.2 °F 24.8 °F 93% 30.05 in 5.0 mi West 8.1 mph - N/A   Overcast
1:11 PM 28.4 °F 20.4 °F 26.6 °F 93% 30.05 in 5.0 mi West 8.1 mph - N/A   Overcast
1:31 PM 28.4 °F 21.2 °F 26.6 °F 93% 30.05 in 5.0 mi West 6.9 mph - N/A   Overcast
1:51 PM 28.4 °F 17.0 °F 26.6 °F 93% 30.05 in 2.0 mi WNW 15.0 mph 24.2 mph N/A   Overcast
2:11 PM 26.6 °F 15.2 °F 19.4 °F 74% 30.06 in 10.0 mi WNW 13.8 mph 26.5 mph N/A   Overcast
2:31 PM 26.6 °F 15.7 °F 19.4 °F 74% 30.07 in 10.0 mi WNW 12.7 mph 23.0 mph N/A   Scattered Clouds
2:51 PM 26.6 °F 15.2 °F 19.4 °F 74% 30.07 in 10.0 mi WNW 13.8 mph 21.9 mph N/A   Clear
3:03 PM 24.8 °F 12.4 °F 17.6 °F 74% 30.08 in 10.0 mi WNW 15.0 mph 23.0 mph N/A   Clear
3:21 PM 23.0 °F 11.1 °F 15.8 °F 74% 30.08 in 10.0 mi WNW 12.7 mph 25.3 mph N/A   Clear
3:41 PM 21.2 °F 8.3 °F 15.8 °F 80% 30.09 in 10.0 mi WNW 13.8 mph 24.2 mph N/A   Clear
4:01 PM 21.2 °F 8.3 °F 14.0 °F 74% 30.10 in 10.0 mi WNW 13.8 mph 20.7 mph N/A   Clear
4:21 PM 19.4 °F 9.5 °F 14.0 °F 80% 30.11 in 10.0 mi WNW 8.1 mph - N/A   Clear
4:41 PM 17.6 °F 7.3 °F 12.2 °F 79% 30.11 in 10.0 mi WNW 8.1 mph - N/A   Scattered Clouds
4:45 PM 17.6 °F 7.3 °F 12.2 °F 79% 30.11 in 10.0 mi WNW 8.1 mph - N/A   Mostly Cloudy
4:58 PM 19.4 °F 7.2 °F 12.2 °F 74% 30.12 in 10.0 mi WNW 11.5 mph 18.4 mph N/A   Mostly Cloudy
5:11 PM 19.4 °F 7.9 °F 14.0 °F 80% 30.12 in 10.0 mi WNW 10.4 mph 19.6 mph N/A   Overcast
5:31 PM 19.4 °F 6.6 °F 14.0 °F 80% 30.12 in 10.0 mi WNW 12.7 mph 19.6 mph N/A   Overcast
5:50 PM 17.6 °F 4.3 °F 12.2 °F 79% 30.13 in 10.0 mi NW 12.7 mph 18.4 mph N/A   Scattered Clouds
6:11 PM 17.6 °F 7.3 °F 12.2 °F 79% 30.14 in 10.0 mi WNW 8.1 mph 16.1 mph N/A   Clear
6:31 PM 15.8 °F 4.2 °F 10.4 °F 79% 30.14 in 10.0 mi West 9.2 mph 16.1 mph N/A   Clear
6:50 PM 15.8 °F 5.1 °F 10.4 °F 79% 30.14 in 10.0 mi WNW 8.1 mph - N/A   Clear
7:11 PM 15.8 °F 4.2 °F 10.4 °F 79% 30.14 in 10.0 mi West 9.2 mph - N/A   Clear
7:31 PM 15.8 °F 5.1 °F 10.4 °F 79% 30.14 in 10.0 mi West 8.1 mph - N/A   Clear
7:51 PM 14.0 °F 2.9 °F 10.4 °F 86% 30.14 in 10.0 mi West 8.1 mph - N/A   Clear
8:10 PM 14.0 °F 5.1 °F 10.4 °F 86% 30.14 in 10.0 mi WNW 5.8 mph - N/A   Clear
8:31 PM 10.4 °F 0.8 °F 8.6 °F 92% 30.14 in 10.0 mi West 5.8 mph - N/A   Scattered Clouds
8:51 PM 12.2 °F 2.9 °F 10.4 °F 92% 30.14 in 10.0 mi West 5.8 mph - N/A   Mostly Cloudy
9:10 PM 15.8 °F 7.2 °F 12.2 °F 86% 30.14 in 10.0 mi West 5.8 mph - N/A   Overcast
9:31 PM 15.8 °F 7.2 °F 12.2 °F 86% 30.13 in 10.0 mi West 5.8 mph - N/A   Overcast
9:51 PM 17.6 °F 8.2 °F 14.0 °F 86% 30.13 in 10.0 mi West 6.9 mph - N/A   Overcast
10:10 PM 17.6 °F 9.3 °F 14.0 °F 86% 30.13 in 10.0 mi West 5.8 mph - N/A   Overcast
10:31 PM 17.6 °F 12.3 °F 15.8 °F 93% 30.13 in 10.0 mi West 3.5 mph - N/A   Overcast
10:51 PM 19.4 °F 11.5 °F 15.8 °F 86% 30.13 in 10.0 mi West 5.8 mph - N/A   Overcast
11:11 PM 19.4 °F 12.8 °F 15.8 °F 86% 30.13 in 10.0 mi West 4.6 mph - N/A   Overcast
11:31 PM 19.4 °F 14.3 °F 15.8 °F 86% 30.13 in 10.0 mi West 3.5 mph - N/A   Overcast
11:50 PM 19.4 °F 14.3 °F 15.8 °F 86% 30.12 in 10.0 mi WSW 3.5 mph - N/A   Overcast